FW0094 Weather Reports


time (UTC)temp
F
wind
direction
speed
knots
gust
knots
rain 1hr
in
rain 24hr
in
rain mn
in
humidity
%
barometer
mb
20260510164610 78 0 0.0 4.3 0.00 0.80 0.00 64 1017.1
20260510164056 77 116 0.9 5.2 0.00 0.80 0.00 65 1017.2
20260510163558 76 0 0.9 5.2 0.00 0.80 0.00 66 1017.3
20260510163057 76 123 0.0 4.3 0.00 0.80 0.00 68 1017.4
20260510162557 75 91 0.0 4.3 0.00 0.80 0.00 70 1017.3
20260510162057 75 0 0.9 4.3 0.00 0.80 0.00 71 1017.3
20260510161558 75 0 0.0 1.7 0.00 0.80 0.00 72 1017.2
20260510161057 74 0 0.0 6.1 0.00 0.80 0.00 72 1017.3
20260510160559 74 101 0.0 6.1 0.00 0.80 0.00 72 1017.2
20260510160059 73 119 0.9 6.1 0.00 0.80 0.00 73 1017.2
20260510155558 73 70 0.0 3.5 0.00 0.98 0.00 73 1017.1
20260510155057 73 0 0.0 3.5 0.00 0.98 0.00 73 1017.1
20260510154559 73 0 0.0 3.5 0.00 0.98 0.00 73 1016.8
20260510154057 73 109 0.0 3.5 0.00 0.98 0.00 73 1016.9
20260510153556 72 0 0.9 3.5 0.00 0.98 0.00 73 1016.9
20260510153055 72 0 0.0 5.2 0.00 0.98 0.00 73 1017.1
20260510152557 72 106 0.0 5.2 0.00 0.98 0.00 73 1017.1
20260510152057 71 86 1.7 5.2 0.00 0.98 0.00 73 1017.1
20260510151557 71 94 0.9 5.2 0.00 0.98 0.00 73 1017.0
20260510151056 70 98 0.9 2.6 0.00 0.98 0.00 73 1017.1
20260510150558 70 0 0.0 2.6 0.00 0.98 0.00 73 1017.2
20260510150122 70 0 0.9 3.5 0.00 0.98 0.00 73 1017.3
20260510145600 70 0 0.0 5.2 0.00 1.16 0.00 73 1017.3
20260510145056 70 87 1.7 5.2 0.00 1.16 0.00 73 1017.4
20260510144615 70 0 0.0 3.5 0.00 1.16 0.00 73 1017.4
20260510144058 69 0 0.0 6.1 0.00 1.16 0.00 73 1017.4
20260510143555 69 0 0.9 6.1 0.00 1.16 0.00 73 1017.4
20260510143057 70 80 0.0 3.5 0.00 1.16 0.00 73 1017.4
20260510142557 70 0 0.0 2.6 0.00 1.16 0.00 73 1017.5
20260510142057 69 0 0.9 2.6 0.00 1.16 0.00 73 1017.4
20260510141603 69 0 0.0 3.5 0.00 1.16 0.00 73 1017.3
20260510141138 69 0 0.0 3.5 0.00 1.16 0.00 73 1017.3
20260510140557 69 101 0.0 3.5 0.00 1.16 0.00 73 1017.3
20260510140054 69 0 0.0 3.5 0.00 1.16 0.00 73 1017.3
20260510135556 69 96 0.0 3.5 0.00 1.91 0.00 73 1017.3
20260510135057 68 111 0.9 3.5 0.00 1.91 0.00 73 1017.3
20260510134607 68 105 0.9 5.2 0.00 1.91 0.00 73 1017.3
20260510134056 68 107 0.9 5.2 0.00 1.91 0.00 73 1017.2
20260510133557 68 0 0.0 2.6 0.00 1.91 0.00 73 1017.3
20260510133056 68 352 0.9 3.5 0.00 1.91 0.00 73 1017.2
20260510132556 68 0 0.0 3.5 0.00 1.91 0.00 73 1017.1
20260510132059 67 0 0.0 0.0 0.00 1.91 0.00 73 1017.0
20260510131600 67 0 0.0 1.7 0.00 1.91 0.00 73 1017.0
20260510131057 67 0 0.0 1.7 0.00 1.91 0.00 73 1017.0
20260510130556 67 0 0.0 0.0 0.00 1.91 0.00 73 1016.8
20260510130058 67 0 0.0 0.0 0.00 1.91 0.00 73 1016.8
20260510125558 67 0 0.0 0.0 0.00 2.03 0.00 73 1016.7
20260510125056 67 0 0.0 0.0 0.00 2.03 0.00 73 1016.6
20260510124601 66 0 0.0 0.9 0.00 2.03 0.00 73 1016.7
20260510124057 66 0 0.0 0.9 0.00 2.03 0.00 73 1016.5
20260510123557 66 0 0.0 0.9 0.00 2.03 0.00 73 1016.5
20260510123058 66 0 0.0 1.7 0.00 2.03 0.00 73 1016.5
20260510122556 66 0 0.0 1.7 0.00 2.03 0.00 73 1016.5
20260510122056 66 0 0.0 1.7 0.00 2.03 0.00 73 1016.4
20260510121557 66 0 0.0 0.0 0.00 2.03 0.00 73 1016.4
20260510121102 66 0 0.0 0.0 0.00 2.03 0.00 73 1016.3
20260510120557 66 0 0.0 0.0 0.00 2.03 0.00 73 1016.2
20260510120054 66 0 0.0 0.0 0.00 2.03 0.00 73 1016.1
20260510115556 66 0 0.0 0.0 0.00 2.03 0.00 73 1016.0
20260510115056 66 0 0.0 0.0 0.00 2.03 0.00 73 1015.9
20260510114614 65 0 0.0 0.0 0.00 2.03 0.00 73 1015.7
20260510114056 65 0 0.0 1.7 0.00 2.03 0.00 73 1015.7
20260510113557 65 0 0.0 2.6 0.00 2.03 0.00 73 1015.6
20260510113100 65 106 0.0 2.6 0.00 2.03 0.00 73 1015.4
20260510112556 65 0 0.0 2.6 0.00 2.03 0.00 73 1015.4
20260510112057 65 271 0.0 2.6 0.00 2.03 0.00 73 1015.2
20260510111559 65 0 0.0 1.7 0.00 2.03 0.00 73 1015.1
20260510111056 65 0 0.0 0.0 0.00 2.03 0.00 73 1015.0
20260510110558 65 0 0.0 0.0 0.00 2.03 0.00 73 1014.9
20260510110056 65 0 0.0 0.0 0.00 2.03 0.00 73 1014.9
20260510105601 65 0 0.0 0.0 0.00 2.03 0.00 73 1014.8
20260510105058 65 0 0.0 0.0 0.00 2.03 0.00 73 1014.7
20260510104620 65 0 0.0 0.0 0.00 2.03 0.00 73 1014.5
20260510104058 65 0 0.0 0.0 0.00 2.03 0.00 73 1014.4
20260510103558 65 0 0.0 0.0 0.00 2.03 0.00 73 1014.4
20260510103059 65 0 0.0 0.0 0.00 2.03 0.00 73 1014.3
20260510102558 65 0 0.0 0.0 0.00 2.03 0.00 73 1014.1
20260510102101 65 0 0.0 0.0 0.00 2.03 0.00 73 1014.1
20260510101605 65 0 0.0 0.0 0.00 2.03 0.00 73 1013.9
20260510101058 65 0 0.0 0.0 0.00 2.03 0.00 73 1014.0
20260510100558 65 0 0.0 0.0 0.00 2.03 0.00 73 1014.0
20260510100104 65 0 0.0 0.0 0.00 2.03 0.00 73 1013.9
20260510095557 65 0 0.0 0.0 0.00 3.23 0.00 73 1013.9
20260510095058 65 0 0.0 0.0 0.00 3.23 0.00 73 1013.9
20260510094605 65 0 0.0 0.0 0.00 3.23 0.00 73 1013.9
20260510094058 65 0 0.0 0.0 0.00 3.23 0.00 73 1013.8
20260510093601 65 0 0.0 0.0 0.00 3.23 0.00 73 1013.9
20260510093103 65 0 0.0 0.0 0.00 3.23 0.00 73 1013.8
20260510092601 65 0 0.0 2.6 0.00 3.23 0.00 73 1013.8
20260510092058 65 0 0.0 3.5 0.00 3.23 0.00 73 1013.9
20260510091558 66 0 0.0 3.5 0.00 3.23 0.00 73 1013.7
20260510091058 66 0 0.0 2.6 0.00 3.23 0.00 73 1013.7
20260510090558 66 0 0.0 2.6 0.00 3.23 0.00 73 1013.7
20260510090056 66 0 0.0 0.0 0.00 3.23 0.00 73 1013.7
20260510085602 66 0 0.0 0.9 0.00 3.23 0.00 73 1013.6
20260510085058 66 0 0.0 0.9 0.00 3.23 0.00 73 1013.6
20260510084558 66 0 0.0 0.9 0.00 3.23 0.00 73 1013.6
20260510084058 66 0 0.0 0.0 0.00 3.23 0.00 73 1013.5
20260510083559 66 0 0.0 0.9 0.00 3.23 0.00 73 1013.5
20260510083100 66 0 0.0 0.9 0.00 3.23 0.00 73 1013.5
20260510082601 66 0 0.0 2.6 0.00 3.23 0.00 73 1013.5
20260510082058 66 0 0.0 2.6 0.00 3.23 0.00 73 1013.6
20260510081558 66 271 0.0 1.7 0.00 3.23 0.00 73 1013.4
20260510081059 66 0 0.0 1.7 0.00 3.23 0.00 73 1013.5
20260510080558 66 0 0.0 1.7 0.00 3.23 0.00 73 1013.5
20260510080101 66 271 0.0 3.5 0.00 3.23 0.00 73 1013.4
20260510075558 66 0 0.0 3.5 0.00 3.23 0.00 73 1013.4
20260510075058 66 0 0.0 0.0 0.00 3.23 0.00 73 1013.4
20260510074607 66 0 0.0 0.0 0.00 3.23 0.00 73 1013.4
20260510074100 66 0 0.0 1.7 0.00 3.23 0.00 73 1013.2
20260510073559 66 0 0.0 1.7 0.00 3.23 0.00 73 1013.1
20260510073100 67 271 0.0 1.7 0.00 3.23 0.00 73 1013.3
20260510072558 67 0 0.0 1.7 0.00 3.23 0.00 73 1013.3
20260510072058 67 0 0.0 1.7 0.00 3.23 0.00 73 1013.3
20260510071603 67 0 0.0 1.7 0.00 3.23 0.00 73 1013.3
20260510071058 67 0 0.0 0.0 0.00 3.23 0.00 73 1013.2
20260510070600 67 0 0.0 1.7 0.00 3.23 0.00 73 1013.2
20260510070109 67 0 0.0 1.7 0.00 3.23 0.00 73 1013.3
20260510065558 67 0 0.0 1.7 0.00 3.23 0.00 73 1013.3
20260510065058 67 271 0.0 1.7 0.00 3.23 0.00 73 1013.3
20260510064603 67 0 0.0 1.7 0.00 3.23 0.00 73 1013.3
20260510064057 67 0 0.0 0.9 0.00 3.23 0.00 73 1013.2
20260510063558 67 0 0.0 2.6 0.00 3.23 0.00 73 1013.2
20260510063102 67 0 0.0 2.6 0.00 3.23 0.00 73 1013.3
20260510062558 67 0 0.0 0.0 0.00 3.23 0.00 73 1013.4
20260510062058 67 0 0.0 0.9 0.00 3.23 0.00 73 1013.4
20260510061558 67 0 0.0 0.9 0.00 3.23 0.00 73 1013.5
20260510061059 67 0 0.0 0.9 0.00 3.23 0.00 73 1013.5
20260510060558 67 0 0.0 0.9 0.00 3.23 0.00 73 1013.6
20260510055558 67 0 0.0 3.5 0.00 3.23 0.00 73 1013.5
20260510055058 67 0 0.0 3.5 0.00 3.23 0.00 73 1013.6
20260510054601 67 0 0.0 0.0 0.00 3.23 0.00 73 1013.4
20260510054057 67 0 0.0 0.0 0.00 3.23 0.00 73 1013.5
20260510053602 67 0 0.0 0.0 0.00 3.23 0.00 73 1013.5
20260510053057 67 0 0.0 0.0 0.00 3.23 0.00 73 1013.5
20260510052558 67 0 0.0 0.0 0.00 3.23 0.00 73 1013.7
20260510052058 67 0 0.0 0.0 0.00 3.23 0.00 73 1013.6
20260510051558 67 0 0.0 0.0 0.00 3.23 0.00 73 1013.6
20260510051100 67 0 0.0 0.0 0.00 3.23 0.00 73 1013.8
20260510050557 67 0 0.0 0.0 0.00 3.23 0.00 73 1013.7
20260510050059 67 0 0.0 0.0 0.00 3.23 0.00 73 1013.5
20260510045601 67 0 0.0 0.0 0.00 3.23 3.23 73 1013.4
20260510045058 68 0 0.0 0.0 0.00 3.23 3.23 73 1013.5
20260510044611 68 0 0.0 0.0 0.00 3.23 3.23 73 1013.5
20260510044100 68 0 0.0 0.0 0.00 3.23 3.23 73 1013.7
20260510043558 68 0 0.0 0.0 0.00 3.23 3.23 73 1013.6
20260510043110 68 0 0.0 0.0 0.00 3.23 3.23 73 1013.7
20260510042558 68 0 0.0 0.0 0.00 3.23 3.23 73 1013.6
20260510042102 68 0 0.0 1.7 0.00 3.23 3.23 73 1013.6
20260510041607 68 0 0.0 1.7 0.00 3.23 3.23 73 1013.5
20260510041058 68 0 0.0 1.7 0.00 3.23 3.23 73 1013.4
20260510040558 68 0 0.0 0.0 0.00 3.23 3.23 73 1013.4
20260510040100 68 0 0.0 0.0 0.00 3.23 3.23 73 1013.8
20260510035558 68 0 0.0 0.0 0.00 3.23 3.23 73 1013.8
20260510035059 68 0 0.0 1.7 0.00 3.23 3.23 73 1013.9
20260510034559 68 0 0.0 1.7 0.00 3.23 3.23 73 1014.1
20260510034058 68 0 0.0 0.0 0.00 3.23 3.23 73 1014.3
20260510033601 68 0 0.0 0.0 0.00 3.23 3.23 73 1014.2
20260510033128 68 0 0.0 0.0 0.00 3.23 3.23 73 1014.1
20260510032603 68 0 0.0 0.0 0.00 3.23 3.23 73 1013.9
20260510032058 68 0 0.0 0.0 0.00 3.23 3.23 73 1014.1
20260510031621 68 0 0.0 0.0 0.00 3.23 3.23 73 1013.9
20260510031100 68 0 0.0 0.0 0.00 3.23 3.23 73 1013.9
20260510030557 68 0 0.0 0.0 0.00 3.23 3.23 73 1013.9
20260510025558 68 0 0.0 0.0 0.00 3.23 3.23 73 1014.1
20260510025058 68 0 0.0 0.0 0.00 3.23 3.23 73 1014.0
20260510024557 68 0 0.0 0.0 0.00 3.23 3.23 73 1014.1
20260510024101 68 0 0.0 0.0 0.00 3.23 3.23 73 1014.1
20260510023558 68 0 0.0 0.0 0.00 3.23 3.23 73 1014.0
20260510023103 69 0 0.0 0.0 0.00 3.23 3.23 73 1013.8
20260510022558 69 0 0.0 0.9 0.00 3.23 3.23 73 1013.6
20260510022058 69 0 0.0 2.6 0.00 3.23 3.23 73 1013.4
20260510021603 69 0 0.0 2.6 0.00 3.23 3.23 73 1013.2
20260510021100 69 0 0.0 2.6 0.00 3.23 3.23 73 1013.2
20260510020558 69 173 0.0 0.0 0.01 3.23 3.23 73 1012.8
20260510020100 69 0 0.0 0.0 0.01 3.23 3.23 73 1012.9
20260510015600 69 0 0.0 0.0 0.01 3.23 3.23 73 1012.8
20260510015117 69 0 0.0 0.0 0.01 3.23 3.23 73 1012.6
20260510014608 69 0 0.0 0.0 0.01 3.23 3.23 73 1012.5
20260510014058 69 0 0.0 0.0 0.01 3.23 3.23 73 1012.7
20260510013559 69 0 0.0 0.0 0.01 3.23 3.23 73 1012.9
20260510013058 69 0 0.0 1.7 0.01 3.23 3.23 73 1013.1
20260510012558 69 0 0.0 1.7 0.01 3.23 3.23 73 1013.3
20260510012059 69 0 0.0 1.7 0.01 3.23 3.23 73 1013.3
20260510011601 69 0 0.0 1.7 0.01 3.23 3.23 73 1013.1
20260510011101 68 0 0.0 1.7 0.01 3.23 3.23 73 1012.8
20260510010558 68 155 0.0 1.7 0.01 3.22 3.22 73 1012.8
20260510005558 68 0 0.0 0.0 0.01 3.25 3.22 73 1012.8
20260510005057 68 0 0.0 0.0 0.02 3.25 3.22 73 1012.8
20260510004559 68 0 0.0 0.0 0.02 3.25 3.22 73 1012.7
20260510004058 68 0 0.0 2.6 0.03 3.25 3.22 73 1012.7
20260510003558 68 0 0.0 3.5 0.03 3.25 3.22 73 1012.7
20260510003103 68 191 0.0 3.5 0.03 3.25 3.22 73 1012.8
20260510002558 68 0 0.0 2.6 0.04 3.25 3.22 73 1012.7
20260510002057 68 0 0.0 1.7 0.04 3.25 3.22 73 1013.0
20260510001557 68 129 0.0 1.7 0.05 3.25 3.22 73 1012.5
20260510001058 68 0 0.0 1.7 0.05 3.25 3.22 73 1012.9
20260510000601 68 0 0.0 0.9 0.04 3.24 3.21 73 1012.8
20260510000100 68 0 0.0 0.9 0.04 3.24 3.21 73 1013.0
20260509235600 68 0 0.0 0.9 0.04 3.29 3.21 73 1013.0
20260509235058 68 0 0.0 0.9 0.03 3.28 3.20 73 1013.1
20260509234607 68 0 0.0 0.0 0.03 3.28 3.20 73 1013.2
20260509234057 68 0 0.0 0.0 0.02 3.27 3.19 73 1013.2
20260509233601 68 0 0.0 0.0 0.02 3.27 3.19 73 1013.3
20260509233059 68 0 0.0 0.0 0.02 3.27 3.19 73 1013.5
20260509232558 68 0 0.0 0.0 0.01 3.26 3.18 73 1013.4
20260509232058 68 0 0.0 0.0 0.02 3.26 3.18 73 1013.2
20260509231557 68 0 0.0 0.0 0.01 3.25 3.17 73 1013.0
20260509231057 68 0 0.0 0.0 0.01 3.25 3.17 73 1013.2
20260509230558 68 0 0.0 0.0 0.01 3.25 3.17 73 1013.2
20260509230108 68 0 0.0 0.0 0.02 3.25 3.17 73 1012.9
20260509225557 68 0 0.0 0.0 0.02 3.27 3.17 73 1012.4
20260509225057 68 0 0.0 0.0 0.02 3.27 3.17 73 1012.4
20260509224635 68 0 0.0 0.0 0.02 3.27 3.17 73 1012.0
20260509224058 68 0 0.0 0.9 0.02 3.27 3.17 73 1011.9
20260509223558 68 0 0.0 0.9 0.02 3.27 3.17 73 1011.8
20260509223100 68 0 0.0 2.6 0.02 3.27 3.17 73 1011.9
20260509222559 68 0 0.0 2.6 0.02 3.27 3.17 73 1011.8
20260509222057 68 0 0.0 2.6 0.01 3.26 3.16 73 1012.0
20260509221558 68 145 0.0 2.6 0.01 3.26 3.16 73 1012.3
20260509221059 68 172 0.0 1.7 0.01 3.26 3.16 73 1012.5
20260509220557 68 0 0.0 1.7 0.01 3.26 3.16 73 1012.9
20260509220103 68 0 0.0 0.9 0.00 3.25 3.15 73 1012.8
20260509215558 68 0 0.0 0.0 0.00 3.53 3.15 73 1012.8
20260509215058 68 0 0.0 0.0 0.00 3.53 3.15 73 1012.9
20260509214558 68 0 0.0 0.9 0.00 3.53 3.15 73 1012.8
20260509214058 68 0 0.0 1.7 0.00 3.53 3.15 73 1012.5
20260509213558 68 0 0.0 2.6 0.00 3.53 3.15 73 1012.3
20260509213106 68 0 0.0 5.2 0.01 3.53 3.15 73 1011.9
20260509212557 68 178 0.0 5.2 0.01 3.53 3.15 73 1011.4
20260509212057 68 148 1.7 5.2 0.01 3.53 3.15 73 1011.2
20260509211604 68 0 0.0 2.6 0.02 3.53 3.15 73 1011.0
20260509211057 68 0 0.0 0.9 0.03 3.53 3.15 73 1011.3
20260509210558 68 0 0.0 3.5 0.03 3.53 3.15 73 1011.2
20260509205559 68 0 0.0 0.9 0.05 3.97 3.15 73 1011.2
20260509205101 68 0 0.0 1.7 0.06 3.97 3.15 73 1011.4
20260509204604 68 0 0.0 1.7 0.07 3.97 3.15 73 1011.5
20260509204058 68 177 0.0 1.7 0.08 3.97 3.15 73 1011.8
20260509203557 68 0 0.0 0.9 0.09 3.97 3.15 73 1012.0
20260509203101 68 0 0.0 0.9 0.10 3.96 3.14 73 1012.6
20260509202558 67 0 0.0 1.7 0.11 3.96 3.14 73 1012.8
20260509202058 67 0 0.0 1.7 0.12 3.96 3.14 73 1012.9
20260509201556 67 0 0.0 1.7 0.13 3.95 3.13 73 1012.8
20260509201057 67 0 0.0 2.6 0.13 3.94 3.12 73 1012.6
20260509200557 67 0 0.0 2.6 0.14 3.94 3.12 73 1012.6
20260509200057 67 0 0.0 5.2 0.13 3.92 3.10 73 1012.5
20260509195558 67 180 0.0 5.2 0.14 3.93 3.09 73 1012.6
20260509195057 67 0 0.0 3.5 0.16 3.93 3.09 73 1012.7
20260509194558 67 150 0.0 3.5 0.16 3.92 3.08 73 1012.6
20260509194101 68 0 0.0 2.6 0.17 3.91 3.07 73 1012.6
20260509193557 68 0 0.0 2.6 0.17 3.90 3.06 73 1012.8
20260509193057 68 0 0.0 2.6 0.16 3.88 3.04 73 1013.4
20260509192557 68 0 0.0 1.7 0.14 3.86 3.02 73 1013.3
20260509192057 68 0 0.0 3.5 0.15 3.86 3.02 73 1013.2
20260509191609 68 0 0.0 4.3 0.14 3.84 3.00 73 1013.3
20260509191100 68 196 0.0 4.3 0.14 3.83 2.99 73 1013.3
20260509190557 68 184 0.9 2.6 0.14 3.82 2.98 73 1013.3
20260509190059 68 0 0.0 0.9 0.14 3.81 2.97 73 1013.2
20260509185558 68 0 0.0 0.9 0.13 3.79 2.95 73 1013.4
20260509185058 67 0 0.0 1.7 0.13 3.77 2.93 73 1013.3
20260509184558 67 0 0.0 1.7 0.14 3.76 2.92 73 1013.0
20260509184058 67 0 0.0 2.6 0.14 3.74 2.90 73 1013.2
20260509183557 67 0 0.0 2.6 0.14 3.73 2.89 73 1013.2
20260509183057 67 0 0.0 2.6 0.19 3.72 2.88 73 1013.0
20260509182559 67 0 0.0 3.5 0.20 3.72 2.88 73 1012.9
20260509182057 67 0 0.0 3.5 0.21 3.71 2.87 73 1012.6
20260509181604 67 0 0.9 2.6 0.21 3.70 2.86 73 1012.6
20260509181058 66 0 0.9 5.2 0.23 3.69 2.85 73 1012.7
20260509180558 66 0 0.0 6.1 0.31 3.68 2.84 73 1012.9
20260509180059 66 120 0.9 6.1 0.31 3.67 2.83 72 1013.2
20260509175558 66 116 0.9 3.5 0.31 3.66 2.82 73 1013.2
20260509175058 66 0 0.0 1.7 0.29 3.64 2.80 73 1013.6
20260509174604 65 0 0.0 2.6 0.28 3.62 2.78 73 1013.6
20260509174058 65 165 0.0 2.6 0.26 3.60 2.76 72 1013.6
20260509173557 65 111 1.7 3.5 0.26 3.59 2.75 72 1013.5
20260509173114 65 0 0.9 3.5 0.20 3.53 2.69 72 1014.2
20260509172557 65 256 0.9 4.3 0.20 3.52 2.68 72 1013.4
20260509172058 65 117 0.9 4.3 0.19 3.50 2.66 72 1012.7
20260509171605 65 0 0.9 3.5 0.19 3.49 2.65 72 1013.5
20260509171058 65 0 0.0 3.5 0.17 3.46 2.62 72 1014.1
20260509170600 65 0 0.0 3.5 0.09 3.37 2.53 72 1014.4
20260509170100 65 0 0.0 3.5 0.09 3.36 2.52 72 1013.8
20260509165557 65 0 0.0 5.2 0.09 3.35 2.51 72 1013.4
20260509165100 65 0 0.9 6.1 0.10 3.35 2.51 72 1013.3